Find Starlink 36288

NORAD ID: 69164 Int'l Des: 2026-111 Owner: SPXS Country: US Constellation: starlink operational
LEOCIRCULAR

当前视图

正在加载3D地球...

About Starlink 36288

Starlink 36288 (NORAD 69164) is a starlink constellation satellite (v2 mini) launched May 21, 2026 by SPXS of US. It operates in LEO, CIRCULAR orbit with a mass of 575.00 kg.

即将过境

Passes for default location (London). Set your location on the main map for personalized predictions.

高度历史

Loading altitude history...

两行轨道根数

1 69164U 26111S 26235.32583006 .00019106 00000-0 57520-3 0 9991
2 69164 53.1571 197.4077 0001117 89.3497 270.7634 15.34398341 14572
Epoch: Aug 23, 2026 • Age: 18 hours

当前状态

高度 481.6 km
远地点 / 近地点 N/A
速度 7.62 km/s
星下点 -52.41°S, 112.63°E
发射日期 May 21, 2026
运行时间 0.2 years
类型 internet

技术详情

分类 Payload
质量 575.00 kg
干质量 530.00 kg
总质量 575.00 kg
长度 0.30 m
直径 4.10 m
跨度 29.00 m
形状 Box + pan
制造商 SPXS
平台类型 Starlink V2MO
阶段状态 In Orbit
所有者/国家 SPXS/US

Most Searched